Time,TemperatureF,DewpointF,PressureIn,WindDirection,WindDirectionDegrees,WindSpeedMPH,WindSpeedGustMPH,Humidity,HourlyPrecipIn,Conditions,Clouds,dailyrainin,SoftwareType,DateUTC
2013-03-28 00:00:00,40.3,37.3,29.72,WNW,292,0.0,0.0,89,0.00,RA,,0.00,WeatherDisplay:10.37,2013-03-28 07:00:00,
2013-03-28 00:05:00,40.3,37.3,29.72,WNW,292,0.0,0.0,89,0.00,RA,,0.00,WeatherDisplay:10.37,2013-03-28 07:05:00,
2013-03-28 00:10:00,40.1,37.1,29.72,WNW,292,0.0,0.0,89,0.00,CLR,,0.00,WeatherDisplay:10.37,2013-03-28 07:10:00,
2013-03-28 00:15:00,39.9,36.9,29.72,WNW,292,0.0,0.0,89,0.00,CLR,,0.00,WeatherDisplay:10.37,2013-03-28 07:15:00,
2013-03-28 00:20:00,39.7,36.8,29.72,WNW,292,0.0,0.0,89,0.00,CLR,,0.00,WeatherDisplay:10.37,2013-03-28 07:20:00,
2013-03-28 00:25:00,39.7,36.8,29.72,WNW,292,0.0,0.0,89,0.00,CLR,,0.00,WeatherDisplay:10.37,2013-03-28 07:25:00,
2013-03-28 00:32:00,39.4,36.4,29.73,WNW,292,0.0,0.0,89,0.00,CLR,,0.00,WeatherDisplay:10.37,2013-03-28 07:32:00,
2013-03-28 00:37:00,39.4,36.4,29.72,WNW,292,0.0,0.0,89,0.00,CLR,,0.00,WeatherDisplay:10.37,2013-03-28 07:37:00,
2013-03-28 00:42:00,39.4,36.4,29.73,WNW,292,0.0,0.0,89,0.00,CLR,,0.00,WeatherDisplay:10.37,2013-03-28 07:42:00,
2013-03-28 00:47:00,39.4,36.7,29.73,WNW,292,0.0,0.0,90,0.00,CLR,,0.00,WeatherDisplay:10.37,2013-03-28 07:47:00,
2013-03-28 00:52:00,39.0,36.3,29.73,WNW,292,0.0,0.0,90,0.00,CLR,,0.00,WeatherDisplay:10.37,2013-03-28 07:52:00,
2013-03-28 00:57:00,39.0,36.3,29.74,WNW,292,0.0,0.0,90,0.00,CLR,,0.00,WeatherDisplay:10.37,2013-03-28 07:57:00,
2013-03-28 01:02:00,39.0,36.3,29.74,WNW,292,0.0,0.0,90,0.00,CLR,,0.00,WeatherDisplay:10.37,2013-03-28 08:02:00,
2013-03-28 01:07:00,39.0,36.3,29.74,WNW,292,0.0,0.0,90,0.00,CLR,,0.00,WeatherDisplay:10.37,2013-03-28 08:07:00,
2013-03-28 01:13:00,39.2,36.5,29.74,WNW,292,0.0,0.0,90,0.00,CLR,,0.00,WeatherDisplay:10.37,2013-03-28 08:13:00,
2013-03-28 01:18:00,39.4,36.7,29.74,WNW,292,0.0,0.0,90,0.00,CLR,,0.00,WeatherDisplay:10.37,2013-03-28 08:18:00,
2013-03-28 01:23:00,39.4,36.7,29.73,WNW,292,0.0,0.0,90,0.00,CLR,,0.00,WeatherDisplay:10.37,2013-03-28 08:23:00,
2013-03-28 01:28:00,39.2,36.5,29.73,WNW,292,0.0,0.0,90,0.00,CLR,,0.00,WeatherDisplay:10.37,2013-03-28 08:28:00,
2013-03-28 01:34:00,39.0,36.3,29.73,WNW,292,0.0,0.0,90,0.00,CLR,,0.00,WeatherDisplay:10.37,2013-03-28 08:34:00,
2013-03-28 01:39:00,39.0,36.3,29.73,WNW,292,0.0,0.0,90,0.00,CLR,,0.00,WeatherDisplay:10.37,2013-03-28 08:39:00,
2013-03-28 01:44:00,38.8,36.2,29.74,WNW,292,0.0,0.0,90,0.00,CLR,,0.00,WeatherDisplay:10.37,2013-03-28 08:44:00,
2013-03-28 01:49:00,38.8,36.2,29.74,WNW,292,0.0,0.0,90,0.00,CLR,,0.00,WeatherDisplay:10.37,2013-03-28 08:49:00,
2013-03-28 01:54:00,38.8,36.2,29.74,WNW,292,0.0,0.0,90,0.00,CLR,,0.00,WeatherDisplay:10.37,2013-03-28 08:54:00,
2013-03-28 01:59:00,38.8,36.2,29.74,WNW,292,0.0,0.0,90,0.00,CLR,,0.00,WeatherDisplay:10.37,2013-03-28 08:59:00,
2013-03-28 02:04:00,39.0,36.3,29.74,WNW,292,0.0,0.0,90,0.00,CLR,,0.00,WeatherDisplay:10.37,2013-03-28 09:04:00,
2013-03-28 02:09:00,39.0,36.3,29.74,WNW,292,0.0,0.0,90,0.00,CLR,,0.00,WeatherDisplay:10.37,2013-03-28 09:09:00,
2013-03-28 02:14:00,39.0,36.3,29.74,WNW,292,0.0,0.0,90,0.00,CLR,,0.00,WeatherDisplay:10.37,2013-03-28 09:14:00,
2013-03-28 02:20:00,39.4,36.7,29.73,WNW,292,0.0,0.0,90,0.00,CLR,,0.00,WeatherDisplay:10.37,2013-03-28 09:20:00,
2013-03-28 02:25:00,39.4,36.7,29.74,WNW,292,0.0,0.0,90,0.00,CLR,,0.00,WeatherDisplay:10.37,2013-03-28 09:25:00,
2013-03-28 02:30:00,39.6,36.9,29.74,WNW,292,0.0,0.0,90,0.00,CLR,,0.00,WeatherDisplay:10.37,2013-03-28 09:30:00,
2013-03-28 02:35:00,39.6,36.9,29.74,WNW,292,0.0,0.0,90,0.00,CLR,,0.00,WeatherDisplay:10.37,2013-03-28 09:35:00,
2013-03-28 02:40:00,39.7,37.0,29.75,WNW,292,0.0,0.0,90,0.00,CLR,,0.00,WeatherDisplay:10.37,2013-03-28 09:40:00,
2013-03-28 02:45:00,39.7,37.0,29.74,WNW,292,0.0,0.0,90,0.00,CLR,,0.00,WeatherDisplay:10.37,2013-03-28 09:45:00,
2013-03-28 02:50:00,39.9,37.2,29.75,WNW,292,0.0,0.0,90,0.00,CLR,,0.00,WeatherDisplay:10.37,2013-03-28 09:50:00,
2013-03-28 02:55:00,39.9,37.2,29.75,WNW,292,0.0,0.0,90,0.00,CLR,,0.00,WeatherDisplay:10.37,2013-03-28 09:55:00,
2013-03-28 03:00:00,39.9,37.2,29.75,WNW,292,0.0,0.0,90,0.00,CLR,,0.00,WeatherDisplay:10.37,2013-03-28 10:00:00,
2013-03-28 03:05:00,39.9,37.2,29.75,WNW,292,0.0,0.0,90,0.00,CLR,,0.00,WeatherDisplay:10.37,2013-03-28 10:05:00,
2013-03-28 03:10:00,39.9,37.2,29.75,WNW,292,0.0,0.0,90,0.00,CLR,,0.00,WeatherDisplay:10.37,2013-03-28 10:10:00,
2013-03-28 03:15:00,39.9,37.2,29.75,WNW,292,0.0,0.0,90,0.00,CLR,,0.00,WeatherDisplay:10.37,2013-03-28 10:15:00,
2013-03-28 03:20:00,39.9,37.2,29.75,WNW,292,0.0,0.0,90,0.00,CLR,,0.00,WeatherDisplay:10.37,2013-03-28 10:20:00,
2013-03-28 03:25:00,39.9,37.5,29.74,WNW,292,0.0,0.0,91,0.00,CLR,,0.00,WeatherDisplay:10.37,2013-03-28 10:25:00,
2013-03-28 03:30:00,40.1,37.7,29.74,WNW,292,0.0,0.0,91,0.00,CLR,,0.00,WeatherDisplay:10.37,2013-03-28 10:30:00,
2013-03-28 03:35:00,40.3,37.9,29.74,WNW,292,0.0,0.0,91,0.00,CLR,,0.00,WeatherDisplay:10.37,2013-03-28 10:35:00,
2013-03-28 03:40:00,40.3,37.9,29.74,WNW,292,0.0,0.0,91,0.00,CLR,,0.00,WeatherDisplay:10.37,2013-03-28 10:40:00,
2013-03-28 03:45:00,40.5,38.0,29.74,WNW,292,0.0,0.0,91,0.00,CLR,,0.00,WeatherDisplay:10.37,2013-03-28 10:45:00,
2013-03-28 03:50:00,40.6,38.2,29.74,WNW,292,0.0,0.0,91,0.00,CLR,,0.00,WeatherDisplay:10.37,2013-03-28 10:50:00,
2013-03-28 03:55:00,40.6,38.2,29.74,WNW,292,0.0,0.0,91,0.00,CLR,,0.00,WeatherDisplay:10.37,2013-03-28 10:55:00,
2013-03-28 04:00:00,40.8,38.4,29.74,WNW,292,0.0,0.0,91,0.00,CLR,,0.00,WeatherDisplay:10.37,2013-03-28 11:00:00,
2013-03-28 04:05:00,40.8,38.4,29.75,WNW,292,0.0,0.0,91,0.00,CLR,,0.00,WeatherDisplay:10.37,2013-03-28 11:05:00,
2013-03-28 04:10:00,40.8,38.4,29.75,WNW,292,0.0,0.0,91,0.00,CLR,,0.00,WeatherDisplay:10.37,2013-03-28 11:10:00,
2013-03-28 04:15:00,40.8,38.4,29.75,WNW,292,0.0,0.0,91,0.00,CLR,,0.00,WeatherDisplay:10.37,2013-03-28 11:15:00,
2013-03-28 04:20:00,41.0,38.6,29.75,WNW,292,0.0,0.0,91,0.00,CLR,,0.00,WeatherDisplay:10.37,2013-03-28 11:20:00,
2013-03-28 04:25:00,41.2,38.8,29.75,WNW,292,0.0,0.0,91,0.00,CLR,,0.00,WeatherDisplay:10.37,2013-03-28 11:25:00,
2013-03-28 04:30:00,41.2,38.8,29.76,WNW,292,0.0,0.0,91,0.00,CLR,,0.00,WeatherDisplay:10.37,2013-03-28 11:30:00,
2013-03-28 04:35:00,41.4,38.9,29.76,WNW,292,0.0,0.0,91,0.00,CLR,,0.00,WeatherDisplay:10.37,2013-03-28 11:35:00,
2013-03-28 04:40:00,41.5,39.1,29.76,WNW,292,0.0,0.0,91,0.00,CLR,,0.00,WeatherDisplay:10.37,2013-03-28 11:40:00,
2013-03-28 04:45:00,41.7,39.3,29.76,WNW,292,0.0,0.0,91,0.00,CLR,,0.00,WeatherDisplay:10.37,2013-03-28 11:45:00,
2013-03-28 04:50:00,41.7,39.3,29.76,WNW,292,0.0,0.0,91,0.00,CLR,,0.00,WeatherDisplay:10.37,2013-03-28 11:50:00,
2013-03-28 04:55:00,41.9,39.5,29.76,WNW,292,0.0,0.0,91,0.00,CLR,,0.00,WeatherDisplay:10.37,2013-03-28 11:55:00,
2013-03-28 05:00:00,41.9,39.5,29.76,WNW,292,0.0,0.0,91,0.00,CLR,,0.00,WeatherDisplay:10.37,2013-03-28 12:00:00,
2013-03-28 05:05:00,42.1,39.6,29.77,WNW,292,0.0,0.0,91,0.00,CLR,,0.00,WeatherDisplay:10.37,2013-03-28 12:05:00,
2013-03-28 05:10:00,42.1,39.6,29.77,WNW,292,0.0,0.0,91,0.00,CLR,,0.00,WeatherDisplay:10.37,2013-03-28 12:10:00,
2013-03-28 05:15:00,42.1,39.6,29.77,WNW,292,0.0,0.0,91,0.00,CLR,,0.00,WeatherDisplay:10.37,2013-03-28 12:15:00,
2013-03-28 05:20:00,42.1,39.6,29.77,WNW,292,0.0,0.0,91,0.00,CLR,,0.00,WeatherDisplay:10.37,2013-03-28 12:20:00,
2013-03-28 05:25:00,42.3,39.8,29.77,WNW,292,0.0,0.0,91,0.00,CLR,,0.00,WeatherDisplay:10.37,2013-03-28 12:25:00,
2013-03-28 05:30:00,42.3,39.8,29.77,WNW,292,0.0,0.0,91,0.00,CLR,,0.00,WeatherDisplay:10.37,2013-03-28 12:30:00,
2013-03-28 05:35:00,42.4,40.0,29.78,WNW,292,0.0,0.0,91,0.00,CLR,,0.00,WeatherDisplay:10.37,2013-03-28 12:35:00,
2013-03-28 05:40:00,42.4,40.0,29.78,WNW,292,0.0,0.0,91,0.00,CLR,,0.00,WeatherDisplay:10.37,2013-03-28 12:40:00,
2013-03-28 05:45:00,42.4,40.0,29.78,WNW,292,0.0,0.0,91,0.00,CLR,,0.00,WeatherDisplay:10.37,2013-03-28 12:45:00,
2013-03-28 05:50:00,42.4,40.0,29.78,WNW,292,0.0,0.0,91,0.00,CLR,,0.00,WeatherDisplay:10.37,2013-03-28 12:50:00,
2013-03-28 05:55:00,42.6,40.2,29.78,WNW,292,0.0,0.0,91,0.00,CLR,,0.00,WeatherDisplay:10.37,2013-03-28 12:55:00,
2013-03-28 06:00:00,42.6,40.2,29.78,WNW,292,0.0,0.0,91,0.00,CLR,,0.00,WeatherDisplay:10.37,2013-03-28 13:00:00,
2013-03-28 06:05:00,42.6,40.2,29.78,WNW,292,0.0,0.0,91,0.00,CLR,,0.00,WeatherDisplay:10.37,2013-03-28 13:05:00,
2013-03-28 06:10:00,42.6,40.2,29.78,WNW,292,0.0,0.0,91,0.02,RA,,0.02,WeatherDisplay:10.37,2013-03-28 13:10:00,
2013-03-28 06:15:00,42.6,40.2,29.78,WNW,292,0.0,0.0,91,0.02,RA,,0.02,WeatherDisplay:10.37,2013-03-28 13:15:00,
2013-03-28 06:20:00,42.6,40.2,29.78,WNW,292,0.0,0.0,91,0.02,,,0.02,WeatherDisplay:10.37,2013-03-28 13:20:00,
2013-03-28 06:25:00,42.6,40.2,29.78,WNW,292,0.0,0.0,91,0.02,CLR,,0.06,WeatherDisplay:10.37,2013-03-28 13:25:00,
2013-03-28 06:30:00,42.6,40.2,29.78,WNW,292,0.0,0.0,91,0.06,RA,,0.06,WeatherDisplay:10.37,2013-03-28 13:30:00,
2013-03-28 06:35:00,42.6,40.2,29.78,WNW,292,0.0,0.0,91,0.06,RA,,0.06,WeatherDisplay:10.37,2013-03-28 13:35:00,
2013-03-28 06:40:00,42.6,40.2,29.78,WNW,292,0.0,0.0,91,0.06,CLR,,0.06,WeatherDisplay:10.37,2013-03-28 13:40:00,
2013-03-28 06:45:00,42.6,40.2,29.78,WNW,292,0.0,0.0,91,0.06,CLR,,0.06,WeatherDisplay:10.37,2013-03-28 13:45:00,
2013-03-28 06:50:00,42.6,40.2,29.78,WNW,292,0.0,0.0,91,0.06,CLR,,0.06,WeatherDisplay:10.37,2013-03-28 13:50:00,
2013-03-28 06:55:00,42.6,40.2,29.78,WNW,292,0.0,0.0,91,0.06,CLR,,0.06,WeatherDisplay:10.37,2013-03-28 13:55:00,
2013-03-28 07:00:00,42.8,40.4,29.78,WNW,292,0.0,0.0,91,0.06,CLR,,0.06,WeatherDisplay:10.37,2013-03-28 14:00:00,
2013-03-28 07:05:00,42.8,40.4,29.78,WNW,292,0.0,0.0,91,0.06,CLR,,0.06,WeatherDisplay:10.37,2013-03-28 14:05:00,
2013-03-28 07:10:00,43.0,40.5,29.78,WNW,292,0.0,0.0,91,0.04,CLR,,0.06,WeatherDisplay:10.37,2013-03-28 14:10:00,
2013-03-28 07:15:00,43.0,40.5,29.78,WNW,292,0.0,0.0,91,0.04,CLR,,0.06,WeatherDisplay:10.37,2013-03-28 14:15:00,
2013-03-28 07:20:00,43.0,40.5,29.79,WNW,292,0.0,0.0,91,0.04,CLR,,0.06,WeatherDisplay:10.37,2013-03-28 14:20:00,
2013-03-28 07:25:00,43.0,40.5,29.79,WNW,292,0.0,0.0,91,0.04,CLR,,0.06,WeatherDisplay:10.37,2013-03-28 14:25:00,
2013-03-28 07:30:00,43.2,40.7,29.79,WNW,292,0.0,0.0,91,0.00,CLR,,0.06,WeatherDisplay:10.37,2013-03-28 14:30:00,
2013-03-28 07:35:00,43.2,40.7,29.79,WNW,292,0.0,0.0,91,0.00,CLR,,0.06,WeatherDisplay:10.37,2013-03-28 14:35:00,
2013-03-28 07:40:00,43.2,40.7,29.79,WNW,292,0.0,0.0,91,0.00,CLR,,0.06,WeatherDisplay:10.37,2013-03-28 14:40:00,
2013-03-28 07:45:00,43.2,40.7,29.80,WNW,292,0.0,0.0,91,0.00,CLR,,0.06,WeatherDisplay:10.37,2013-03-28 14:45:00,
2013-03-28 07:50:00,43.3,40.9,29.80,WNW,292,0.0,0.0,91,0.00,CLR,,0.06,WeatherDisplay:10.37,2013-03-28 14:50:00,
2013-03-28 07:55:00,43.5,41.4,29.80,WNW,292,0.0,0.0,92,0.00,CLR,,0.06,WeatherDisplay:10.37,2013-03-28 14:55:00,
2013-03-28 08:00:00,43.5,41.4,29.80,WNW,292,0.0,0.0,92,0.00,CLR,,0.06,WeatherDisplay:10.37,2013-03-28 15:00:00,
2013-03-28 08:05:00,43.7,41.5,29.80,WNW,292,0.0,0.0,92,0.00,CLR,,0.06,WeatherDisplay:10.37,2013-03-28 15:05:00,
2013-03-28 08:10:00,44.1,41.9,29.80,WNW,292,0.0,0.0,92,0.00,CLR,,0.06,WeatherDisplay:10.37,2013-03-28 15:10:00,
2013-03-28 08:15:00,44.2,42.1,29.80,WNW,292,0.0,0.0,92,0.00,CLR,,0.06,WeatherDisplay:10.37,2013-03-28 15:15:00,
2013-03-28 08:20:00,44.4,42.2,29.80,WNW,292,0.0,0.0,92,0.00,CLR,,0.06,WeatherDisplay:10.37,2013-03-28 15:20:00,
2013-03-28 08:25:00,44.4,42.2,29.80,WNW,292,0.0,0.0,92,0.00,CLR,,0.06,WeatherDisplay:10.37,2013-03-28 15:25:00,
2013-03-28 08:30:00,44.8,42.6,29.80,WNW,292,0.0,0.0,92,0.00,CLR,,0.06,WeatherDisplay:10.37,2013-03-28 15:30:00,
2013-03-28 08:35:00,45.0,42.8,29.80,WNW,292,0.0,0.0,92,0.00,CLR,,0.06,WeatherDisplay:10.37,2013-03-28 15:35:00,
2013-03-28 08:40:00,45.3,43.1,29.80,WNW,292,0.0,0.0,92,0.00,CLR,,0.06,WeatherDisplay:10.37,2013-03-28 15:40:00,
2013-03-28 08:45:00,45.7,43.5,29.80,WNW,292,0.0,0.0,92,0.00,CLR,,0.06,WeatherDisplay:10.37,2013-03-28 15:45:00,
2013-03-28 08:50:00,46.0,43.8,29.80,WNW,292,0.0,0.0,92,0.00,CLR,,0.06,WeatherDisplay:10.37,2013-03-28 15:50:00,
2013-03-28 08:55:00,46.6,44.4,29.80,WNW,292,0.0,0.0,92,0.00,CLR,,0.06,WeatherDisplay:10.37,2013-03-28 15:55:00,
2013-03-28 09:00:00,46.9,44.7,29.80,WNW,292,0.0,0.0,92,0.00,CLR,,0.06,WeatherDisplay:10.37,2013-03-28 16:00:00,
2013-03-28 09:05:00,47.1,44.9,29.80,WNW,292,0.0,0.0,92,0.00,CLR,,0.06,WeatherDisplay:10.37,2013-03-28 16:05:00,
2013-03-28 09:10:00,47.7,45.5,29.80,WNW,292,0.0,0.0,92,0.00,CLR,,0.06,WeatherDisplay:10.37,2013-03-28 16:10:00,
2013-03-28 09:15:00,47.8,45.6,29.80,WNW,292,0.0,0.0,92,0.00,CLR,,0.06,WeatherDisplay:10.37,2013-03-28 16:15:00,
2013-03-28 09:20:00,48.0,45.5,29.81,WNW,292,0.0,0.0,91,0.00,CLR,,0.06,WeatherDisplay:10.37,2013-03-28 16:20:00,
2013-03-28 09:25:00,48.0,45.8,29.81,WNW,292,0.0,0.0,92,0.00,CLR,,0.06,WeatherDisplay:10.37,2013-03-28 16:25:00,
2013-03-28 09:30:00,48.4,46.2,29.80,WNW,292,0.0,0.0,92,0.00,CLR,,0.06,WeatherDisplay:10.37,2013-03-28 16:30:00,
2013-03-28 09:35:00,48.6,46.3,29.81,WNW,292,0.0,0.0,92,0.00,CLR,,0.06,WeatherDisplay:10.37,2013-03-28 16:35:00,
2013-03-28 09:40:00,48.9,46.7,29.81,WNW,292,0.0,0.0,92,0.00,CLR,,0.06,WeatherDisplay:10.37,2013-03-28 16:40:00,
2013-03-28 09:45:00,49.3,47.1,29.81,WNW,292,0.0,0.0,92,0.00,CLR,,0.06,WeatherDisplay:10.37,2013-03-28 16:45:00,
2013-03-28 09:50:00,49.8,47.3,29.81,WNW,292,0.0,0.0,91,0.00,CLR,,0.06,WeatherDisplay:10.37,2013-03-28 16:50:00,
2013-03-28 09:55:00,50.2,47.7,29.81,WNW,292,0.0,0.0,91,0.00,CLR,,0.06,WeatherDisplay:10.37,2013-03-28 16:55:00,
2013-03-28 10:00:00,50.5,47.7,29.81,WNW,292,0.0,0.0,90,0.00,CLR,,0.06,WeatherDisplay:10.37,2013-03-28 17:00:00,
2013-03-28 10:05:00,50.9,48.4,29.81,WNW,292,0.0,0.0,91,0.00,CLR,,0.06,WeatherDisplay:10.37,2013-03-28 17:05:00,
2013-03-28 10:10:00,52.3,49.5,29.81,WNW,292,0.0,0.0,90,0.00,CLR,,0.06,WeatherDisplay:10.37,2013-03-28 17:10:00,
2013-03-28 10:15:00,53.1,49.9,29.81,WNW,292,0.0,0.0,89,0.00,CLR,,0.06,WeatherDisplay:10.37,2013-03-28 17:15:00,
2013-03-28 10:20:00,53.2,50.1,29.81,WNW,292,0.0,0.0,89,0.00,CLR,,0.06,WeatherDisplay:10.37,2013-03-28 17:20:00,
2013-03-28 10:25:00,53.8,50.3,29.81,West,270,0.0,0.0,88,0.00,CLR,,0.06,WeatherDisplay:10.37,2013-03-28 17:25:00,
2013-03-28 10:30:00,54.0,50.2,29.82,West,270,0.0,0.0,87,0.00,CLR,,0.06,WeatherDisplay:10.37,2013-03-28 17:30:00,
2013-03-28 10:35:00,54.1,50.4,29.81,West,270,0.0,0.0,87,0.00,CLR,,0.06,WeatherDisplay:10.37,2013-03-28 17:35:00,
2013-03-28 10:40:00,54.1,50.0,29.82,West,270,0.0,0.0,86,0.00,CLR,,0.06,WeatherDisplay:10.37,2013-03-28 17:40:00,
2013-03-28 10:45:00,54.3,50.2,29.82,West,270,0.0,0.0,86,0.00,CLR,,0.06,WeatherDisplay:10.37,2013-03-28 17:45:00,
2013-03-28 10:50:00,54.5,50.4,29.82,West,270,0.0,0.0,86,0.00,CLR,,0.06,WeatherDisplay:10.37,2013-03-28 17:50:00,
2013-03-28 10:55:00,55.0,50.9,29.82,West,270,0.0,0.0,86,0.00,CLR,,0.06,WeatherDisplay:10.37,2013-03-28 17:55:00,
2013-03-28 11:00:00,55.2,50.8,29.82,West,270,0.0,0.0,85,0.00,CLR,,0.06,WeatherDisplay:10.37,2013-03-28 18:00:00,
2013-03-28 11:05:00,55.4,51.0,29.82,West,270,0.0,0.0,85,0.00,CLR,,0.06,WeatherDisplay:10.37,2013-03-28 18:05:00,
2013-03-28 11:10:00,55.9,51.5,29.82,West,270,0.0,0.0,85,0.00,CLR,,0.06,WeatherDisplay:10.37,2013-03-28 18:10:00,
2013-03-28 11:15:00,56.1,51.4,29.82,West,270,0.0,0.0,84,0.00,CLR,,0.06,WeatherDisplay:10.37,2013-03-28 18:15:00,
2013-03-28 11:20:00,56.1,50.7,29.83,West,270,0.0,0.0,82,0.00,CLR,,0.06,WeatherDisplay:10.37,2013-03-28 18:20:00,
2013-03-28 11:25:00,56.1,50.7,29.83,West,270,0.0,0.0,82,0.00,CLR,,0.06,WeatherDisplay:10.37,2013-03-28 18:25:00,
2013-03-28 11:30:00,56.3,50.9,29.82,West,270,0.0,0.0,82,0.00,CLR,,0.06,WeatherDisplay:10.37,2013-03-28 18:30:00,
2013-03-28 11:35:00,56.1,50.4,29.82,North,0,0.0,0.0,81,0.00,CLR,,0.06,WeatherDisplay:10.37,2013-03-28 18:35:00,
2013-03-28 11:40:00,56.1,50.4,29.82,WNW,292,0.0,0.0,81,0.00,CLR,,0.06,WeatherDisplay:10.37,2013-03-28 18:40:00,
2013-03-28 11:45:00,56.1,50.4,29.82,WNW,292,0.0,0.0,81,0.00,CLR,,0.06,WeatherDisplay:10.37,2013-03-28 18:45:00,
2013-03-28 11:50:00,56.5,50.4,29.82,WSW,248,0.0,0.0,80,0.00,CLR,,0.06,WeatherDisplay:10.37,2013-03-28 18:50:00,
2013-03-28 11:55:00,56.8,50.4,29.82,WSW,248,0.0,0.0,79,0.00,CLR,,0.06,WeatherDisplay:10.37,2013-03-28 18:55:00,
2013-03-28 12:00:00,57.0,50.6,29.82,WSW,248,0.0,0.0,79,0.00,CLR,,0.06,WeatherDisplay:10.37,2013-03-28 19:00:00,
2013-03-28 12:05:00,57.0,50.6,29.81,WNW,292,0.0,0.0,79,0.00,CLR,,0.06,WeatherDisplay:10.37,2013-03-28 19:05:00,
2013-03-28 12:10:00,57.4,50.9,29.81,NNW,338,0.0,0.0,79,0.00,CLR,,0.06,WeatherDisplay:10.37,2013-03-28 19:10:00,
2013-03-28 12:15:00,57.4,50.9,29.81,NW,315,0.0,0.0,79,0.00,CLR,,0.06,WeatherDisplay:10.37,2013-03-28 19:15:00,
2013-03-28 12:20:00,57.9,51.1,29.81,NW,315,0.0,0.0,78,0.00,CLR,,0.06,WeatherDisplay:10.37,2013-03-28 19:20:00,
2013-03-28 12:25:00,58.8,51.3,29.81,NNW,338,0.0,0.0,76,0.00,CLR,,0.06,WeatherDisplay:10.37,2013-03-28 19:25:00,
2013-03-28 12:30:00,59.4,51.4,29.81,NE,45,0.0,0.0,75,0.00,CLR,,0.06,WeatherDisplay:10.37,2013-03-28 19:30:00,
2013-03-28 12:35:00,59.5,51.6,29.81,West,270,0.0,0.0,75,0.00,CLR,,0.06,WeatherDisplay:10.37,2013-03-28 19:35:00,
2013-03-28 12:40:00,59.7,51.8,29.81,WNW,292,0.0,0.0,75,0.00,CLR,,0.06,WeatherDisplay:10.37,2013-03-28 19:40:00,
2013-03-28 12:45:00,59.5,51.2,29.81,WNW,292,0.0,0.0,74,0.00,CLR,,0.06,WeatherDisplay:10.37,2013-03-28 19:45:00,
2013-03-28 12:50:00,59.4,51.4,29.81,SSW,202,0.0,0.0,75,0.00,CLR,,0.06,WeatherDisplay:10.37,2013-03-28 19:50:00,
2013-03-28 12:55:00,59.2,50.5,29.81,SW,225,1.8,1.8,73,0.00,CLR,,0.06,WeatherDisplay:10.37,2013-03-28 19:55:00,
2013-03-28 13:00:00,59.5,50.9,29.81,WNW,292,3.5,3.5,73,0.00,CLR,,0.06,WeatherDisplay:10.37,2013-03-28 20:00:00,
2013-03-28 13:06:00,59.7,50.7,29.81,WNW,292,7.4,7.4,72,0.00,CLR,,0.06,WeatherDisplay:10.37,2013-03-28 20:06:00,
2013-03-28 13:11:00,59.9,50.1,29.81,NNW,338,4.6,0.0,70,0.00,CLR,,0.06,WeatherDisplay:10.37,2013-03-28 20:11:00,
2013-03-28 13:16:00,59.7,49.9,29.81,WSW,248,4.5,0.0,70,0.00,CLR,,0.06,WeatherDisplay:10.37,2013-03-28 20:16:00,
2013-03-28 13:21:00,59.7,49.9,29.81,NNW,338,3.6,3.6,70,0.00,CLR,,0.06,WeatherDisplay:10.37,2013-03-28 20:21:00,
2013-03-28 13:27:00,59.5,49.0,29.81,NW,315,0.0,0.0,68,0.00,CLR,,0.06,WeatherDisplay:10.37,2013-03-28 20:27:00,
2013-03-28 13:32:00,59.7,49.1,29.82,NNW,338,3.5,3.5,68,0.00,CLR,,0.06,WeatherDisplay:10.37,2013-03-28 20:32:00,
2013-03-28 13:37:00,59.7,48.7,29.82,NNE,22,0.0,0.0,67,0.00,CLR,,0.06,WeatherDisplay:10.37,2013-03-28 20:37:00,
2013-03-28 13:42:00,59.4,48.8,29.82,NW,315,2.3,3.1,68,0.00,CLR,,0.06,WeatherDisplay:10.37,2013-03-28 20:42:00,
2013-03-28 13:47:00,58.8,48.3,29.82,WNW,292,2.9,2.9,68,0.00,CLR,,0.06,WeatherDisplay:10.37,2013-03-28 20:47:00,
2013-03-28 13:52:00,58.8,48.7,29.82,WNW,292,0.0,0.0,69,0.00,CLR,,0.06,WeatherDisplay:10.37,2013-03-28 20:52:00,
2013-03-28 13:57:00,58.8,48.7,29.82,NE,45,0.0,0.0,69,0.00,CLR,,0.06,WeatherDisplay:10.37,2013-03-28 20:57:00,
2013-03-28 14:02:00,58.6,48.5,29.82,WNW,292,4.6,4.6,69,0.00,CLR,,0.06,WeatherDisplay:10.37,2013-03-28 21:02:00,
2013-03-28 14:07:00,58.6,48.5,29.82,NNW,338,0.0,0.0,69,0.00,CLR,,0.06,WeatherDisplay:10.37,2013-03-28 21:07:00,
2013-03-28 14:12:00,58.8,48.7,29.82,WNW,292,0.0,0.0,69,0.00,CLR,,0.06,WeatherDisplay:10.37,2013-03-28 21:12:00,
2013-03-28 14:17:00,58.8,48.7,29.82,SW,225,4.7,4.7,69,0.00,CLR,,0.06,WeatherDisplay:10.37,2013-03-28 21:17:00,
2013-03-28 14:22:00,58.8,49.1,29.81,SSW,202,5.8,0.0,70,0.00,CLR,,0.06,WeatherDisplay:10.37,2013-03-28 21:22:00,
2013-03-28 14:28:00,58.8,48.7,29.81,NNW,338,0.0,0.0,69,0.00,CLR,,0.06,WeatherDisplay:10.37,2013-03-28 21:28:00,
2013-03-28 14:33:00,58.8,48.7,29.81,NW,315,0.0,0.0,69,0.00,CLR,,0.06,WeatherDisplay:10.37,2013-03-28 21:33:00,
2013-03-28 14:38:00,59.4,48.8,29.81,WNW,292,0.0,0.7,68,0.00,CLR,,0.06,WeatherDisplay:10.37,2013-03-28 21:38:00,
2013-03-28 14:43:00,59.7,49.1,29.81,NW,315,0.0,0.0,68,0.00,CLR,,0.06,WeatherDisplay:10.37,2013-03-28 21:43:00,
2013-03-28 14:48:00,60.1,49.5,29.81,SW,225,0.0,0.0,68,0.00,CLR,,0.06,WeatherDisplay:10.37,2013-03-28 21:48:00,
2013-03-28 14:53:00,60.6,49.2,29.81,NE,45,5.8,5.8,66,0.00,CLR,,0.06,WeatherDisplay:10.37,2013-03-28 21:53:00,
2013-03-28 14:58:00,60.6,48.8,29.81,WNW,292,0.0,0.0,65,0.00,CLR,,0.06,WeatherDisplay:10.37,2013-03-28 21:58:00,
2013-03-28 15:03:00,60.4,48.6,29.80,NE,45,0.0,0.0,65,0.00,CLR,,0.06,WeatherDisplay:10.37,2013-03-28 22:03:00,
2013-03-28 15:08:00,60.6,48.8,29.80,SW,225,2.3,2.3,65,0.00,CLR,,0.06,WeatherDisplay:10.37,2013-03-28 22:08:00,
2013-03-28 15:13:00,61.2,49.7,29.81,West,270,0.0,0.0,66,0.00,CLR,,0.06,WeatherDisplay:10.37,2013-03-28 22:13:00,
2013-03-28 15:18:00,61.5,49.6,29.80,WNW,292,0.0,0.0,65,0.00,CLR,,0.06,WeatherDisplay:10.37,2013-03-28 22:18:00,
2013-03-28 15:23:00,61.5,48.8,29.80,WSW,248,0.0,0.0,63,0.00,CLR,,0.06,WeatherDisplay:10.37,2013-03-28 22:23:00,
2013-03-28 15:28:00,61.5,48.8,29.80,NW,315,1.2,0.0,63,0.00,CLR,,0.06,WeatherDisplay:10.37,2013-03-28 22:28:00,
2013-03-28 15:33:00,61.5,48.4,29.80,West,270,2.3,2.3,62,0.00,CLR,,0.06,WeatherDisplay:10.37,2013-03-28 22:33:00,
2013-03-28 15:38:00,61.2,47.6,29.80,NNE,22,2.2,2.2,61,0.00,CLR,,0.06,WeatherDisplay:10.37,2013-03-28 22:38:00,
2013-03-28 15:43:00,61.2,48.0,29.80,SW,225,1.2,0.0,62,0.00,CLR,,0.06,WeatherDisplay:10.37,2013-03-28 22:43:00,
2013-03-28 15:48:00,61.5,48.4,29.80,NNE,22,0.0,0.0,62,0.00,CLR,,0.06,WeatherDisplay:10.37,2013-03-28 22:48:00,
2013-03-28 15:53:00,61.5,48.4,29.80,WSW,248,0.0,0.9,62,0.00,CLR,,0.06,WeatherDisplay:10.37,2013-03-28 22:53:00,
2013-03-28 15:58:00,61.5,48.4,29.80,South,180,0.0,0.0,62,0.00,CLR,,0.06,WeatherDisplay:10.37,2013-03-28 22:58:00,
2013-03-28 16:03:00,61.5,48.4,29.80,South,180,3.5,0.0,62,0.00,CLR,,0.06,WeatherDisplay:10.37,2013-03-28 23:03:00,
2013-03-28 16:08:00,61.7,48.5,29.80,West,270,0.0,0.0,62,0.00,CLR,,0.06,WeatherDisplay:10.37,2013-03-28 23:08:00,
2013-03-28 16:13:00,61.9,48.3,29.80,WSW,248,0.0,0.0,61,0.00,CLR,,0.06,WeatherDisplay:10.37,2013-03-28 23:13:00,
2013-03-28 16:18:00,61.5,48.4,29.80,SW,225,0.0,0.0,62,0.00,CLR,,0.06,WeatherDisplay:10.37,2013-03-28 23:18:00,
2013-03-28 16:23:00,61.0,47.9,29.80,SW,225,0.0,0.0,62,0.00,CLR,,0.06,WeatherDisplay:10.37,2013-03-28 23:23:00,
2013-03-28 16:28:00,60.6,47.5,29.80,SW,225,0.0,0.0,62,0.00,CLR,,0.06,WeatherDisplay:10.37,2013-03-28 23:28:00,
2013-03-28 16:33:00,60.6,47.9,29.80,WNW,292,0.0,0.0,63,0.00,CLR,,0.06,WeatherDisplay:10.37,2013-03-28 23:33:00,
2013-03-28 16:38:00,60.6,47.9,29.80,West,270,1.6,1.6,63,0.00,CLR,,0.06,WeatherDisplay:10.37,2013-03-28 23:38:00,
2013-03-28 16:43:00,60.6,47.9,29.81,NW,315,0.0,0.0,63,0.00,CLR,,0.06,WeatherDisplay:10.37,2013-03-28 23:43:00,
2013-03-28 16:48:00,60.4,46.9,29.81,WSW,248,0.0,0.0,61,0.00,CLR,,0.06,WeatherDisplay:10.37,2013-03-28 23:48:00,
2013-03-28 16:53:00,60.3,47.2,29.81,SW,225,3.5,3.5,62,0.00,CLR,,0.06,WeatherDisplay:10.37,2013-03-28 23:53:00,
2013-03-28 16:58:00,60.1,47.0,29.81,SW,225,0.0,0.0,62,0.00,CLR,,0.06,WeatherDisplay:10.37,2013-03-28 23:58:00,
2013-03-28 17:03:00,60.1,47.4,29.81,SW,225,3.5,3.6,63,0.00,CLR,,0.06,WeatherDisplay:10.37,2013-03-29 00:03:00,
2013-03-28 17:08:00,60.3,48.0,29.81,SSE,158,0.0,1.5,64,0.00,CLR,,0.06,WeatherDisplay:10.37,2013-03-29 00:08:00,
2013-03-28 17:13:00,60.4,47.8,29.81,SE,135,4.6,4.6,63,0.00,CLR,,0.06,WeatherDisplay:10.37,2013-03-29 00:13:00,
2013-03-28 17:18:00,60.4,47.4,29.81,South,180,2.3,2.3,62,0.00,CLR,,0.06,WeatherDisplay:10.37,2013-03-29 00:18:00,
2013-03-28 17:23:00,60.3,46.8,29.81,SW,225,0.0,0.0,61,0.00,CLR,,0.06,WeatherDisplay:10.37,2013-03-29 00:23:00,
2013-03-28 17:28:00,59.9,46.8,29.81,SW,225,0.0,0.0,62,0.00,CLR,,0.06,WeatherDisplay:10.37,2013-03-29 00:28:00,
2013-03-28 17:33:00,59.7,46.7,29.80,SSW,202,0.0,0.0,62,0.00,CLR,,0.06,WeatherDisplay:10.37,2013-03-29 00:33:00,
2013-03-28 17:38:00,59.7,47.1,29.80,SSE,158,0.0,0.0,63,0.00,CLR,,0.06,WeatherDisplay:10.37,2013-03-29 00:38:00,
2013-03-28 17:43:00,59.5,46.5,29.80,SSW,202,0.0,0.0,62,0.00,CLR,,0.06,WeatherDisplay:10.37,2013-03-29 00:43:00,
2013-03-28 17:48:00,59.4,46.8,29.80,SSW,202,0.0,0.0,63,0.00,CLR,,0.06,WeatherDisplay:10.37,2013-03-29 00:48:00,
2013-03-28 17:53:00,59.4,46.8,29.81,SSW,202,0.0,0.0,63,0.00,CLR,,0.06,WeatherDisplay:10.37,2013-03-29 00:53:00,
2013-03-28 17:58:00,59.2,46.6,29.81,ESE,112,0.0,0.0,63,0.00,CLR,,0.06,WeatherDisplay:10.37,2013-03-29 00:58:00,
2013-03-28 18:03:00,58.8,46.2,29.81,SSE,158,0.0,0.0,63,0.00,CLR,,0.06,WeatherDisplay:10.37,2013-03-29 01:03:00,
2013-03-28 18:08:00,58.8,46.2,29.81,SE,135,0.0,0.0,63,0.00,CLR,,0.06,WeatherDisplay:10.37,2013-03-29 01:08:00,
2013-03-28 18:13:00,58.5,46.3,29.81,ESE,112,2.3,0.0,64,0.00,CLR,,0.06,WeatherDisplay:10.37,2013-03-29 01:13:00,
2013-03-28 18:18:00,58.1,46.0,29.81,SE,135,2.3,2.3,64,0.00,CLR,,0.06,WeatherDisplay:10.37,2013-03-29 01:18:00,
2013-03-28 18:23:00,57.4,45.7,29.81,ENE,68,0.0,0.0,65,0.00,CLR,,0.06,WeatherDisplay:10.37,2013-03-29 01:23:00,
2013-03-28 18:29:00,56.8,45.6,29.81,ENE,68,0.0,0.0,66,0.00,CLR,,0.06,WeatherDisplay:10.37,2013-03-29 01:29:00,
2013-03-28 18:35:00,56.5,45.7,29.81,East,90,0.0,0.0,67,0.00,CLR,,0.06,WeatherDisplay:10.37,2013-03-29 01:35:00,
2013-03-28 18:40:00,56.1,46.1,29.82,ESE,112,1.2,1.2,69,0.00,CLR,,0.06,WeatherDisplay:10.37,2013-03-29 01:40:00,
2013-03-28 18:45:00,55.8,45.7,29.82,East,90,0.0,0.0,69,0.00,CLR,,0.06,WeatherDisplay:10.37,2013-03-29 01:45:00,
2013-03-28 18:50:00,55.4,45.4,29.82,ESE,112,2.5,2.5,69,0.00,CLR,,0.06,WeatherDisplay:10.37,2013-03-29 01:50:00,
2013-03-28 18:55:00,55.0,45.4,29.81,ENE,68,0.0,0.0,70,0.00,CLR,,0.06,WeatherDisplay:10.37,2013-03-29 01:55:00,
2013-03-28 19:00:00,54.7,45.5,29.82,NE,45,1.2,0.0,71,0.00,CLR,,0.06,WeatherDisplay:10.37,2013-03-29 02:00:00,
2013-03-28 19:05:00,54.3,45.1,29.82,NE,45,0.0,0.0,71,0.00,CLR,,0.06,WeatherDisplay:10.37,2013-03-29 02:05:00,
2013-03-28 19:10:00,54.0,44.8,29.82,NE,45,0.0,0.0,71,0.00,CLR,,0.06,WeatherDisplay:10.37,2013-03-29 02:10:00,
2013-03-28 19:15:00,53.4,44.6,29.82,NE,45,0.0,0.0,72,0.00,CLR,,0.06,WeatherDisplay:10.37,2013-03-29 02:15:00,
2013-03-28 19:20:00,53.2,44.8,29.82,SSE,158,0.0,0.0,73,0.00,CLR,,0.06,WeatherDisplay:10.37,2013-03-29 02:20:00,
2013-03-28 19:25:00,52.9,44.5,29.82,SSE,158,0.0,0.0,73,0.00,CLR,,0.06,WeatherDisplay:10.37,2013-03-29 02:25:00,
2013-03-28 19:30:00,52.7,44.6,29.82,SSE,158,0.0,0.0,74,0.00,CLR,,0.06,WeatherDisplay:10.37,2013-03-29 02:30:00,
2013-03-28 19:35:00,52.3,44.3,29.82,SSE,158,0.0,0.0,74,0.00,CLR,,0.06,WeatherDisplay:10.37,2013-03-29 02:35:00,
2013-03-28 19:40:00,51.8,44.1,29.82,SSE,158,0.0,0.0,75,0.00,CLR,,0.06,WeatherDisplay:10.37,2013-03-29 02:40:00,
2013-03-28 19:45:00,51.4,43.8,29.83,SSE,158,0.0,0.0,75,0.00,CLR,,0.06,WeatherDisplay:10.37,2013-03-29 02:45:00,
2013-03-28 19:50:00,51.3,44.0,29.83,SSE,158,0.0,0.0,76,0.00,CLR,,0.06,WeatherDisplay:10.37,2013-03-29 02:50:00,
2013-03-28 19:55:00,50.7,43.8,29.83,SSE,158,0.0,0.0,77,0.00,CLR,,0.06,WeatherDisplay:10.37,2013-03-29 02:55:00,
2013-03-28 20:00:00,50.5,43.6,29.83,SSE,158,0.0,0.0,77,0.00,CLR,,0.06,WeatherDisplay:10.37,2013-03-29 03:00:00,
2013-03-28 20:05:00,50.2,43.6,29.83,SSE,158,0.0,0.0,78,0.00,CLR,,0.06,WeatherDisplay:10.37,2013-03-29 03:05:00,
2013-03-28 20:10:00,49.8,43.2,29.83,SSE,158,0.0,0.0,78,0.00,CLR,,0.06,WeatherDisplay:10.37,2013-03-29 03:10:00,
2013-03-28 20:15:00,49.6,43.1,29.83,SSE,158,0.0,0.0,78,0.00,CLR,,0.06,WeatherDisplay:10.37,2013-03-29 03:15:00,
2013-03-28 20:20:00,49.3,43.0,29.83,SSE,158,0.0,0.0,79,0.00,CLR,,0.06,WeatherDisplay:10.37,2013-03-29 03:20:00,
2013-03-28 20:25:00,48.7,42.5,29.83,SSE,158,0.0,0.0,79,0.00,CLR,,0.06,WeatherDisplay:10.37,2013-03-29 03:25:00,
2013-03-28 20:30:00,48.6,42.7,29.84,SSE,158,0.0,0.0,80,0.00,CLR,,0.06,WeatherDisplay:10.37,2013-03-29 03:30:00,
2013-03-28 20:35:00,48.2,42.3,29.84,SSE,158,0.0,0.0,80,0.00,CLR,,0.06,WeatherDisplay:10.37,2013-03-29 03:35:00,
2013-03-28 20:40:00,47.8,42.3,29.84,SSE,158,0.0,0.0,81,0.00,CLR,,0.06,WeatherDisplay:10.37,2013-03-29 03:40:00,
2013-03-28 20:45:00,47.5,41.9,29.84,SSE,158,0.0,0.0,81,0.00,CLR,,0.06,WeatherDisplay:10.37,2013-03-29 03:45:00,
2013-03-28 20:50:00,47.3,41.8,29.84,SSE,158,0.0,0.0,81,0.00,CLR,,0.06,WeatherDisplay:10.37,2013-03-29 03:50:00,
2013-03-28 20:57:00,46.9,41.7,29.84,SSE,158,0.0,0.0,82,0.00,CLR,,0.06,WeatherDisplay:10.37,2013-03-29 03:57:00,
2013-03-28 21:00:00,46.8,41.6,29.84,SSE,158,0.0,0.0,82,0.00,CLR,,0.06,WeatherDisplay:10.37,2013-03-29 04:00:00,
2013-03-28 21:01:00,46.6,41.4,29.84,SSE,158,0.0,0.0,82,0.00,CLR,,0.06,WeatherDisplay:10.37,2013-03-29 04:01:00,
2013-03-28 21:03:00,46.6,41.4,29.84,SSE,158,0.0,0.0,82,0.00,CLR,,0.06,WeatherDisplay:10.37,2013-03-29 04:03:00,
2013-03-28 21:05:00,46.2,41.0,29.85,SSE,158,0.0,0.0,82,0.00,CLR,,0.06,WeatherDisplay:10.37,2013-03-29 04:05:00,
2013-03-28 21:10:00,46.2,41.3,29.85,SSE,158,0.0,0.0,83,0.00,CLR,,0.06,WeatherDisplay:10.37,2013-03-29 04:10:00,
2013-03-28 21:15:00,46.0,41.2,29.85,SSE,158,0.0,0.0,83,0.00,CLR,,0.06,WeatherDisplay:10.37,2013-03-29 04:15:00,
2013-03-28 21:20:00,45.7,40.8,29.85,SSE,158,0.0,0.0,83,0.00,CLR,,0.06,WeatherDisplay:10.37,2013-03-29 04:20:00,
2013-03-28 21:25:00,45.3,40.5,29.85,SSE,158,0.0,0.0,83,0.00,CLR,,0.06,WeatherDisplay:10.37,2013-03-29 04:25:00,
2013-03-28 21:30:00,45.1,40.6,29.85,SSE,158,0.0,0.0,84,0.00,CLR,,0.06,WeatherDisplay:10.37,2013-03-29 04:30:00,
2013-03-28 21:35:00,45.0,40.4,29.85,SSE,158,0.0,0.0,84,0.00,CLR,,0.06,WeatherDisplay:10.37,2013-03-29 04:35:00,
2013-03-28 21:40:00,44.8,40.2,29.85,SSE,158,0.0,0.0,84,0.00,CLR,,0.06,WeatherDisplay:10.37,2013-03-29 04:40:00,
2013-03-28 21:45:00,44.4,39.9,29.85,SSE,158,0.0,0.0,84,0.00,CLR,,0.06,WeatherDisplay:10.37,2013-03-29 04:45:00,
2013-03-28 21:50:00,44.2,40.0,29.86,SSE,158,0.0,0.0,85,0.00,CLR,,0.06,WeatherDisplay:10.37,2013-03-29 04:50:00,
2013-03-28 21:55:00,44.2,40.0,29.86,SSE,158,0.0,0.0,85,0.00,CLR,,0.06,WeatherDisplay:10.37,2013-03-29 04:55:00,
2013-03-28 22:00:00,44.1,39.8,29.86,SSE,158,0.0,0.0,85,0.00,CLR,,0.06,WeatherDisplay:10.37,2013-03-29 05:00:00,
2013-03-28 22:05:00,43.9,39.7,29.86,SSE,158,0.0,0.0,85,0.00,CLR,,0.06,WeatherDisplay:10.37,2013-03-29 05:05:00,
2013-03-28 22:10:00,43.5,39.3,29.86,SSE,158,0.0,0.0,85,0.00,CLR,,0.06,WeatherDisplay:10.37,2013-03-29 05:10:00,
2013-03-28 22:15:00,43.3,39.4,29.86,SSE,158,0.0,0.0,86,0.00,CLR,,0.06,WeatherDisplay:10.37,2013-03-29 05:15:00,
2013-03-28 22:20:00,43.2,39.3,29.86,SSE,158,0.0,0.0,86,0.00,CLR,,0.06,WeatherDisplay:10.37,2013-03-29 05:20:00,
2013-03-28 22:25:00,43.0,39.1,29.86,SSE,158,0.0,0.0,86,0.00,CLR,,0.06,WeatherDisplay:10.37,2013-03-29 05:25:00,
2013-03-28 22:30:00,43.0,39.1,29.86,SSE,158,0.0,0.0,86,0.00,CLR,,0.06,WeatherDisplay:10.37,2013-03-29 05:30:00,
2013-03-28 22:35:00,42.6,38.7,29.87,SSE,158,0.0,0.0,86,0.00,CLR,,0.06,WeatherDisplay:10.37,2013-03-29 05:35:00,
2013-03-28 22:40:00,42.6,38.7,29.86,SSE,158,0.0,0.0,86,0.00,CLR,,0.06,WeatherDisplay:10.37,2013-03-29 05:40:00,
2013-03-28 22:46:00,42.4,38.5,29.87,SSE,158,0.0,0.0,86,0.00,CLR,,0.06,WeatherDisplay:10.37,2013-03-29 05:46:00,
2013-03-28 22:51:00,42.4,38.5,29.87,SSE,158,0.0,0.0,86,0.00,CLR,,0.06,WeatherDisplay:10.37,2013-03-29 05:51:00,
2013-03-28 22:57:00,42.1,38.2,29.87,SSE,158,0.0,0.0,86,0.00,CLR,,0.06,WeatherDisplay:10.37,2013-03-29 05:57:00,
2013-03-28 23:02:00,42.1,38.5,29.87,SSE,158,0.0,0.0,87,0.00,CLR,,0.06,WeatherDisplay:10.37,2013-03-29 06:02:00,
2013-03-28 23:07:00,42.1,38.5,29.87,SSE,158,0.0,0.0,87,0.00,CLR,,0.06,WeatherDisplay:10.37,2013-03-29 06:07:00,
2013-03-28 23:12:00,42.1,38.5,29.88,SSE,158,0.0,0.0,87,0.00,CLR,,0.06,WeatherDisplay:10.37,2013-03-29 06:12:00,
2013-03-28 23:17:00,42.1,38.5,29.88,SSE,158,0.0,0.0,87,0.00,CLR,,0.06,WeatherDisplay:10.37,2013-03-29 06:17:00,
2013-03-28 23:23:00,42.1,38.5,29.88,SSE,158,0.0,0.0,87,0.00,CLR,,0.06,WeatherDisplay:10.37,2013-03-29 06:23:00,
2013-03-28 23:28:00,42.1,38.5,29.88,SSE,158,0.0,0.0,87,0.00,CLR,,0.06,WeatherDisplay:10.37,2013-03-29 06:28:00,
2013-03-28 23:33:00,41.9,38.3,29.88,SSE,158,0.0,0.0,87,0.00,CLR,,0.06,WeatherDisplay:10.37,2013-03-29 06:33:00,
2013-03-28 23:38:00,41.9,38.3,29.88,SSE,158,0.0,0.0,87,0.00,CLR,,0.06,WeatherDisplay:10.37,2013-03-29 06:38:00,
2013-03-28 23:43:00,41.9,38.3,29.89,SSE,158,0.0,0.0,87,0.00,CLR,,0.06,WeatherDisplay:10.37,2013-03-29 06:43:00,
2013-03-28 23:48:00,41.9,38.6,29.88,SSE,158,0.0,0.0,88,0.00,CLR,,0.06,WeatherDisplay:10.37,2013-03-29 06:48:00,
2013-03-28 23:53:00,42.1,38.8,29.88,SSE,158,0.0,0.0,88,0.00,CLR,,0.06,WeatherDisplay:10.37,2013-03-29 06:53:00,
2013-03-28 23:58:00,42.1,38.8,29.88,SSE,158,0.0,0.0,88,0.00,CLR,,0.06,WeatherDisplay:10.37,2013-03-29 06:58:00,